www.pogodaiklimat.ru

Погода и климат >> Архив погоды >> Норвегия >> Тронхейм


ПОГОДА в Тронхейме

  • Прогноз погоды в Тронхейме
  • Монитор погоды в Тронхейме

АРХИВ ПОГОДЫ в Тронхейме

Время (UTC), дата Ветер
(напр.,м/с)
 
Видим.   Явления Облачность Т
(С)
Тd
(С)
f
(%)
Тe
(С)
Тes
(С)
Комфортность P
(гПа)
Po
(гПа)
Тmin
(С)
Tmax
(С)
R
(мм)
R24
(мм)
S
(см)
13 14.07 З 3
{5}
н/о н/о +12.4 +6.7 68 +11 +11 1018.9 1003.1
14 14.07 З 2
{5}
н/о н/о +12.2 +6.5 68 +11 +11 1019.0 1003.2
15 14.07 З 2
{6}
н/о н/о +12.0 +6.9 71 +11 +11 1018.9 1003.1
16 14.07 З 2
{5}
н/о н/о +11.2 +7.5 78 +10 +10 1018.9 1003.0
17 14.07 СЗ 3
{6}
н/о н/о +11.0 +7.5 79 +9 +9 1018.8 1002.9
18 14.07 З 3
{6}
н/о н/о +9.8 +7.7 87 +8 +8 1018.9 1002.9 +9.8 +12.7
19 14.07 З 2
{4}
н/о н/о +9.4 +7.7 89 +8 +8 1018.6 1002.6
20 14.07 З 1
{4}
н/о н/о +9.7 +7.0 83 +9 +9 1018.6 1002.6
21 14.07 ЮЗ 1
{4}
н/о н/о +9.6 +7.2 85 +9 +9 1018.4 1002.4
22 14.07 З 2
{6}
н/о н/о +8.8 +7.3 90 +7 +7 1018.4 1002.4
23 14.07 З 2
{4}
н/о н/о +8.9 +7.4 90 +7 +7 1017.7 1001.7
00 15.07 ЮЗ 2
{6}
н/о н/о +8.9 +7.4 90 +7 +7 1017.5 1001.5
01 15.07 ЮЗ 2
{4}
н/о н/о +8.7 +7.5 92 +7 +7 1017.4 1001.4 0.6
02 15.07 ЮЗ 2
{3}
н/о н/о +8.5 +7.4 93 +7 +7 1017.0 1001.0 2
03 15.07 ЮЗ 2
{4}
н/о н/о +8.5 +7.4 93 +7 +7 1016.7 1000.7 0.3
04 15.07 ЮЗ 2
{3}
н/о н/о +8.6 +7.5 93 +7 +7 1016.6 1000.6 0.1
05 15.07 З 2
{5}
н/о н/о +8.5 +7.4 93 +7 +7 1016.3 1000.3
06 15.07 З 2
{5}
н/о н/о +8.8 +7.7 93 +7 +7 1016.2 1000.2 +8.5 +9.8 3
07 15.07 З 1
{3}
н/о н/о +9.0 +7.9 93 +8 +8 1015.8 999.8
08 15.07 ЮЗ 2
{3}
н/о н/о +9.6 +8.4 92 +8 +8 1015.6 999.7 0.1
09 15.07 З 2
{5}
н/о н/о +9.9 +8.3 90 +8 +8 1015.5 999.6
10 15.07 З 2
{5}
н/о н/о +9.9 +8.7 92 +8 +8 1015.3 999.4 0.3
11 15.07 З 2
{3}
н/о н/о +10.3 +9.1 92 +9 +9 1015.1 999.2 0.6
12 15.07 СЗ 1
{5}
н/о н/о +10.2 +9.1 93 +10 +10 1014.8 998.9 0.5
13 15.07 С 1
{2}
н/о н/о +10.7 +9.3 91 +10 +10 1014.5 998.7 0.5
14 15.07 штиль 0
{1}
н/о н/о +10.7 +9.3 91 +10 +10 1014.3 998.5 1
15 15.07 СЗ 1
{2}
н/о н/о +10.7 +9.5 92 +10 +10 1014.1 998.3 1
16 15.07 СЗ 1
{3}
н/о н/о +10.7 +9.8 94 +10 +10 1014.0 998.2 0.7
17 15.07 СЗ 1
{3}
н/о н/о +10.6 +9.7 94 +10 +10 1014.0 998.2 0.3
18 15.07 СЗ 2
{4}
н/о н/о +10.5 +9.6 94 +9 +9 1014.1 998.3 +8.7 +10.9 6
19 15.07 СЗ 2
{4}
н/о н/о +10.3 +8.9 91 +9 +9 1014.6 998.7 0.1
20 15.07 СЗ 2
{5}
н/о н/о +10.1 +8.5 90 +9 +9 1015.2 999.3
21 15.07 СЗ 2
{6}
н/о н/о +9.7 +7.0 83 +8 +8 1015.7 999.8
22 15.07 СЗ 2
{5}
н/о н/о +9.6 +7.2 85 +8 +8 1016.0 1000.1
23 15.07 З 2
{5}
н/о н/о +9.4 +7.2 86 +8 +8 1016.3 1000.4
00 16.07 З 2
{6}
н/о н/о +9.1 +7.1 87 +7 +7 1016.8 1000.8
01 16.07 З 2
{4}
н/о н/о +9.0 +7.1 88 +7 +7 1016.9 1000.9
02 16.07 З 2
{4}
н/о н/о +9.2 +7.2 87 +7 +7 1016.8 1000.8
03 16.07 ЮЗ 2
{6}
н/о н/о +8.9 +7.5 91 +7 +7 1016.9 1000.9
04 16.07 З 3
{4}
н/о н/о +9.2 +7.7 90 +7 +7 1017.0 1001.0
05 16.07 ЮЗ 2
{6}
н/о н/о +9.4 +8.2 92 +8 +8 1017.1 1001.1
06 16.07 ЮЗ 2
{6}
н/о н/о +10.0 +7.9 87 +8 +8 1017.4 1001.5 +8.8 +10.5 0.1
07 16.07 Ю 2
{4}
н/о н/о +10.2 +8.6 90 +9 +9 1017.4 1001.5
08 16.07 ЮЗ 3
{5}
н/о н/о +11.0 +8.4 84 +9 +9 1017.4 1001.5
09 16.07 З 2
{5}
н/о н/о +11.5 +7.8 78 +10 +10 1017.1 1001.3
10 16.07 СЗ 2
{4}
н/о н/о +12.1 +7.6 74 +11 +11 1017.2 1001.4
11 16.07 СЗ 2
{5}
н/о н/о +12.4 +6.9 69 +12 +12 1017.2 1001.4
12 16.07 СЗ 1
{5}
н/о н/о +13.4 +7.6 68 +14 +14 1017.0 1001.3
13 16.07 ЮЗ 1
{3}
н/о н/о +13.3 +8.0 70 +14 +14 1016.8 1001.1
14 16.07 ЮЗ 1
{3}
н/о н/о +12.8 +7.9 72 +13 +13 1017.0 1001.2
15 16.07 Ю 2
{3}
н/о н/о +12.6 +8.5 76 +12 +12 1016.8 1001.0
16 16.07 З 1
{2}
н/о н/о +12.7 +8.6 76 +13 +13 1016.5 1000.7
17 16.07 З 1
{3}
н/о н/о +12.8 +8.3 74 +13 +13 1016.1 1000.4
18 16.07 СЗ 1
{3}
н/о н/о +13.2 +8.3 72 +13 +13 1015.8 1000.1 +10.0 +14.0
19 16.07 С 1
{3}
н/о н/о +13.5 +8.6 72 +14 +14 1015.5 999.8
20 16.07 СЗ 1
{2}
н/о н/о +12.5 +8.6 77 +13 +13 1015.5 999.7
21 16.07 штиль 0
{1}
н/о н/о +11.2 +8.6 84 +11 +11 1015.5 999.7
22 16.07 штиль 0
{1}
н/о н/о +10.7 +8.8 88 +10 +10 1015.5 999.6
23 16.07 ЮВ 1
{2}
н/о н/о +8.7 +7.2 90 +8 +8 1015.5 999.5
00 17.07 штиль 0
{3}
н/о н/о +8.4 +7.5 94 +7 +7 1015.1 999.1
01 17.07 Ю 1
{2}
н/о н/о +8.0 +7.4 96 +7 +7 1014.8 998.8 0.1
02 17.07 Ю 1
{2}
н/о н/о +8.1 +7.7 97 +7 +7 1014.5 998.5
03 17.07 ЮЗ 1
{2}
н/о н/о +7.6 +7.0 96 +7 +7 1014.2 998.2
04 17.07 ЮЗ 1
{2}
н/о н/о +7.8 +7.4 97 +7 +7 1014.2 998.2
05 17.07 ЮЗ 1
{2}
н/о н/о +9.3 +8.7 96 +9 +9 1014.0 998.1
06 17.07 ЮЗ 1
{3}
н/о н/о +9.5 +8.9 96 +9 +9 1013.9 998.0 +7.2 +13.7 0.1
07 17.07 ЮЗ 2
{3}
н/о н/о +10.1 +9.0 93 +8 +8 1013.9 998.0
08 17.07 Ю 1
{3}
н/о н/о +13.2 +9.7 79 +13 +13 1013.5 997.8
09 17.07 СЗ 1
{3}
н/о н/о +14.8 +9.2 69 +15 +15 1013.1 997.5
10 17.07 СВ 2
{4}
н/о н/о +15.4 +8.2 62 +15 +15 1013.0 997.4
11 17.07 СВ 2
{4}
н/о н/о +16.3 +8.3 59 +16 +16 1012.6 997.1
12 17.07
{5}
н/о н/о +16.7 +7.6 55 1012.3 996.8
13 17.07 СВ 2
{4}
н/о н/о +17.2 +6.4 49 +18 +18 1012.0 996.5
14 17.07 В 2
{5}
н/о н/о +17.3 +7.4 52 +18 +18 1011.5 996.1
15 17.07 С 2
{4}
н/о н/о +18.4 +7.8 50 +19 +19 1011.2 995.8
16 17.07 СВ 2
{4}
н/о н/о +18.2 +8.2 52 +19 +19 1010.9 995.5
17 17.07 СВ 2
{4}
н/о н/о +18.1 +8.4 53 +19 +19 1010.7 995.3
18 17.07 СВ 2
{5}
н/о н/о +17.9 +9.0 56 +18 +18 1010.4 995.0 +9.5 +18.4
19 17.07 СВ 1
{3}
н/о н/о +16.8 +9.3 61 +18 +18 1010.6 995.2
20 17.07 СВ 1
{2}
н/о н/о +15.1 +10.3 73 +16 +16 1010.5 995.0
21 17.07 В 2
{2}
н/о н/о +13.1 +9.7 80 +12 +12 1010.5 994.9
22 17.07 В 1
{2}
н/о н/о +13.3 +9.6 78 +14 +14 1010.2 994.6
23 17.07 Ю 1
{2}
н/о н/о +13.0 +10.0 82 +13 +13 1010.4 994.7
00 18.07 В 1
{3}
н/о н/о +12.6 +9.8 83 +13 +13 1010.3 994.6
01 18.07 Ю 1
{2}
н/о н/о +12.9 +10.3 84 +13 +13 1010.1 994.4
02 18.07 В 1
{2}
н/о н/о +12.4 +11.0 91 +12 +12 1009.8 994.1 0.1
03 18.07 штиль 0
{1}
н/о н/о +12.3 +11.0 92 +12 +12 1009.6 993.9 0.1
04 18.07 штиль 0
{1}
н/о н/о +12.2 +11.3 94 +12 +12 1009.2 993.5
05 18.07 С 1
{2}
н/о н/о +14.1 +11.6 85 +14 +14 1009.1 993.5
06 18.07 СВ 2
{3}
н/о н/о +14.1 +11.1 82 +14 +14 1008.9 993.3 +12.1 +18.1 0.2
07 18.07 СВ 2
{4}
н/о н/о +15.8 +11.2 74 +16 +16 1008.5 993.0
08 18.07 СВ 2
{4}
н/о н/о +17.2 +10.1 63 +18 +18 1008.2 992.8
09 18.07 СВ 3
{5}
н/о н/о +18.2 +9.8 58 +19 +19 1007.7 992.4
10 18.07 СВ 3
{5}
н/о н/о +18.6 +10.9 61 +19 +19 1007.4 992.1
11 18.07 С 2
{5}
н/о н/о +20.0 +12.0 60 +22 +22 комфорт 1006.9 991.7
12 18.07 С 3
{5}
н/о н/о +20.8 +11.4 55 +23 +23 комфорт 1006.5 991.3
13 18.07 С 3
{5}
н/о н/о +22.1 +12.7 55 +25 +25 комфорт 1006.1 991.0
14 18.07 СВ 3
{6}
н/о н/о +22.5 +13.0 55 +25 +25 комфорт 1005.7 990.6
15 18.07 СВ 3
{5}
н/о н/о +22.9 +13.7 56 +26 +26 жарко 1005.4 990.3
16 18.07 СВ 3
{5}
н/о н/о +23.2 +13.9 56 +27 +27 душно 1005.1 990.1
17 18.07 СВ 3
{7}
н/о н/о +23.0 +13.8 56 +26 +26 жарко 1004.9 989.9
18 18.07 СВ 2
{7}
н/о н/о +22.4 +14.3 60 +26 +26 жарко 1004.8 989.7 +14.1 +23.3
19 18.07 З 1
{2}
н/о н/о +20.5 +13.9 66 +24 +24 комфорт 1004.9 989.7
20 18.07 Ю 3
{6}
н/о н/о +21.8 +10.9 50 +24 +24 комфорт 1005.2 990.1
21 18.07 Ю 3
{7}
н/о н/о +20.3 +9.9 51 +22 +22 комфорт 1005.7 990.5
22 18.07 Ю 5
{8}
н/о н/о +19.9 +9.8 52 +21 +21 комфорт 1006.0 990.8
23 18.07 ЮЗ 1
{8}
н/о н/о +16.9 +10.3 65 +18 +18 1007.2 991.8
00 19.07 Ю 2
{8}
н/о н/о +17.0 +10.4 65 +17 +17 1007.3 991.9
01 19.07 Ю 2
{5}
н/о н/о +17.1 +10.3 64 +17 +17 1007.0 991.6
02 19.07 З 1
{4}
н/о н/о +15.4 +10.0 70 +16 +16 1007.2 991.7
03 19.07 В 1
{3}
н/о н/о +14.8 +10.4 75 +15 +15 1007.2 991.7 0.1
04 19.07 ЮЗ 2
{4}
н/о н/о +16.0 +9.7 66 +16 +16 1007.0 991.6
05 19.07 Ю 1
{4}
н/о н/о +17.8 +10.2 61 +19 +19 1007.1 991.7
06 19.07 Ю 3
{6}
н/о н/о +18.5 +10.3 59 +19 +19 1007.0 991.7 +13.8 +22.6 0.1
07 19.07 Ю 4
{8}
н/о н/о +20.2 +10.0 52 +22 +22 комфорт 1006.9 991.7
08 19.07 Ю 5
{9}
н/о н/о +21.3 +10.2 49 +23 +23 комфорт 1007.1 991.9
09 19.07 Ю 3
{8}
н/о н/о +20.9 +10.1 50 +23 +23 комфорт 1007.5 992.3
10 19.07 Ю 4
{7}
н/о н/о +21.9 +10.7 49 +24 +24 комфорт 1007.7 992.6
11 19.07 Ю 4
{9}
н/о н/о +22.0 +10.8 49 +24 +24 комфорт 1007.8 992.7
12 19.07 Ю 5
{9}
н/о н/о +22.1 +10.3 47 +24 +24 комфорт 1008.0 992.9
13 19.07 З 3
{8}
н/о н/о +20.5 +12.7 61 +23 +23 комфорт 1008.7 993.5
14 19.07 СЗ 3
{8}
н/о н/о +17.8 +12.7 72 +18 +18 1009.5 994.1
15 19.07 СЗ 3
{7}
н/о н/о +17.2 +12.3 73 +17 +17 1010.0 994.6
17 19.07 СЗ 2
{7}
н/о н/о +16.6 +12.0 74 +17 +17 1010.0 994.5
18 19.07 СЗ 3
{8}
н/о н/о +16.4 +12.0 75 +16 +16 1010.5 995.0 +16.4 +23.1
19 19.07 З 3
{4}
н/о н/о +15.5 +12.1 80 +15 +15 1010.9 995.4
20 19.07 ЮЗ 1
{4}
н/о н/о +14.6 +11.8 83 +15 +15 1011.6 996.0
21 19.07 Ю 1
{3}
н/о н/о +14.2 +11.4 83 +15 +15 1011.7 996.1
22 19.07 Ю 2
{4}
н/о н/о +14.0 +11.0 82 +13 +13 1011.8 996.2
23 19.07 Ю 2
{3}
н/о н/о +13.1 +10.6 85 +12 +12 1012.1 996.4
00 20.07 ЮЗ 3
{6}
н/о н/о +13.3 +10.8 85 +12 +12 1012.2 996.5
01 20.07 Ю 1
{3}
н/о н/о +12.7 +10.8 88 +13 +13 1012.2 996.5
02 20.07 ЮЗ 1
{2}
н/о н/о +12.7 +10.8 88 +13 +13 1012.4 996.7
03 20.07 ЮЗ 1
{2}
н/о н/о +11.8 +10.6 92 +12 +12 1012.4 996.7
04 20.07 ЮЗ 1
{2}
н/о н/о +11.8 +10.9 94 +12 +12 1012.4 996.7
05 20.07 СВ 1
{2}
н/о н/о +14.7 +11.9 83 +15 +15 1012.0 996.4
06 20.07 С 2
{4}
н/о н/о +15.5 +11.9 79 +15 +15 1011.8 996.3 +11.3 +16.4
07 20.07 СВ 3
{5}
н/о н/о +16.2 +12.6 79 +16 +16 1011.9 996.4
08 20.07 СВ 3
{5}
н/о н/о +16.7 +13.0 79 +16 +16 1011.8 996.3
09 20.07 СВ 3
{5}
н/о н/о +17.9 +13.2 74 +18 +18 1011.5 996.1
10 20.07 СВ 3
{6}
н/о н/о +18.9 +13.3 70 +20 +20 1011.4 996.0
11 20.07 С 3
{5}
н/о н/о +20.1 +13.6 66 +22 +22 комфорт 1010.8 995.5
12 20.07 СВ 3
{6}
н/о н/о +20.6 +12.8 61 +23 +23 комфорт 1010.1 994.9
13 20.07 С 2
{4}
н/о н/о +22.5 +14.4 60 +26 +26 жарко 1009.3 994.2
14 20.07 СВ 2
{5}
н/о н/о +23.7 +12.7 50 +26 +26 жарко 1008.7 993.6
15 20.07 Ю 3
{6}
н/о н/о +23.5 +12.2 49 +25 +25 комфорт 1008.4 993.3
16 20.07 Ю 4
{9}
н/о н/о +24.2 +9.4 39 +25 +25 комфорт 1008.0 993.0
17 20.07 Ю 2
{6}
н/о н/о +24.1 +8.9 38 +25 +25 комфорт 1007.5 992.5
18 20.07 Ю 3
{9}
н/о н/о +22.8 +9.9 44 +25 +25 комфорт 1007.7 992.6 +15.5 +24.7
19 20.07 Ю 3
{7}
н/о н/о +21.8 +10.0 47 +23 +23 комфорт 1007.9 992.7
20 20.07 Ю 4
{9}
н/о н/о +21.2 +9.5 47 +23 +23 комфорт 1008.0 992.8
21 20.07 Ю 3
{10}
н/о н/о +20.0 +9.3 50 +22 +22 комфорт 1008.4 993.2
22 20.07 Ю 4
{9}
н/о н/о +18.5 +10.4 59 +19 +19 1008.5 993.2
23 20.07 Ю 4
{8}
н/о н/о +18.4 +9.7 57 +19 +19 1008.3 993.0
00 21.07 Ю 5
{11}
н/о н/о +18.2 +9.8 58 +18 +18 1008.3 993.0
01 21.07 Ю 5
{13}
н/о н/о +18.1 +10.0 59 +18 +18 1008.2 992.8
02 21.07 Ю 4
{9}
н/о н/о +17.1 +11.2 68 +17 +17 1008.0 992.6
03 21.07 ЮЗ 4
{10}
н/о н/о +17.5 +10.9 65 +17 +17 1008.0 992.6
04 21.07 Ю 4
{10}
н/о н/о +16.9 +11.6 71 +16 +16 1008.2 992.8 0.9
05 21.07 Ю 5
{9}
н/о н/о +17.6 +11.4 67 +17 +17 1008.0 992.6
06 21.07 Ю 3
{13}
н/о н/о +18.3 +11.4 64 +19 +19 1007.7 992.4 +15.8 +22.8 0.9
07 21.07 ЮВ 1
{4}
н/о н/о +19.0 +12.5 66 +21 +21 комфорт 1007.7 992.4
08 21.07 В 1
{3}
н/о н/о +20.2 +14.1 68 +24 +24 комфорт 1007.3 992.1
09 21.07 штиль 0
{2}
н/о н/о +19.8 +14.8 73 +22 +22 комфорт 1007.7 992.4
10 21.07 ЮЗ 1
{3}
н/о н/о +18.1 +15.0 82 +19 +19 1008.0 992.7 0.5
11 21.07 Ю 1
{2}
н/о н/о +18.3 +16.1 87 +20 +20 1007.8 992.5 0.1
12 21.07 В 2
{4}
н/о н/о +18.3 +15.6 84 +19 +19 1007.8 992.5 0.1

 

Местоположение метеостанции Тронхейм (Норвегия): широта 63.41 долгота 10.45 высота над уровнем моря 127 м.

В архиве по умолчанию представлена погода в Тронхейме за последнюю неделю. Архивные данные за месяц целиком и за предыдущие месяцы, начиная с января 2011 года, Вы можете получить, выбрав интересующий диапазон дат из раскрывающегося списка и нажав кнопку "Ввод!".


*Определитесь, кто Вы:
робот инопланетянин человек

Внимание! Время в таблицах - всемирное. Для получения местного времени необходимо прибавить поправку, которая равна 1 ч.

Смотрите также архив погоды в соседних городах и на ближайших метеорологических станциях:

Погода во Фросте (Норвегия) (21 км)
Погода в Квитаммаре (Норвегия) (23 км)
Погода в Тронхейм аэропорту (Норвегия) (25 км)
Погода в Орканжере (Норвегия) (32 км)
Погода в Сельбу (Норвегия) (34 км)
Погода в Котсой (Норвегия) (48 км)
Погода в Орленде (Норвегия) (53 км)
Погода в Сокнедале (Норвегия) (53 км)
Погода в Офьорде (Норвегия) (63 км)
Погода в Мерокере (Норвегия) (64 км)

Пояснения к столбцам:

Ветер - указаны скорость ветра в м/с - средняя за 10 мин, порывы в срок и между сроками (в фигурных скобках) и направление, откуда дует ветер: С - северный, СВ - северо-восточный, В - восточный, ЮВ - юго-восточный, Ю - южный, ЮЗ - юго-западный, З - западный, СЗ - северо-западный.
Видимость - горизонтальная дальность видимости в метрах или километрах. При видимости от 1 до 10 км при отсутствии осадков обычно наблюдается дымка, при ухудшении видимости до 1 км и менее - туман. В сухую погоду видимость может ухудшаться дымом, пылью или мглою.
Явления - указаны атмосферные явления, наблюдавшиеся в срок или в последний час перед сроком; фигурными скобками обозначены явления, наблюдавшиеся между сроками (за 1-3 часа до срока); квадратными скобками обозначены град или гололедные отложения с указанием их диаметра в мм.
Облачность - указаны через наклонную черту общая и нижняя облачность в баллах и высота нижней границы облаков в метрах; квадратными скобками обозначены формы облаков: Ci - перистые, Cs - перисто-слоистые, Cc - перисто-кучевые, Ac - высококучевые, As - высокослоистые, Sc - слоисто-кучевые, Ns - слоисто-дождевые, Cu - кучевые, Cb - кучево-дождевые. Подробнее классификацию облаков см. в Атласе облаков (PDF).
T - Температура воздуха - температура, измеренная на высоте 2 м над землей.
Td - Температура точки росы - температура, при понижении до которой содержащийся в воздухе водяной пар достигнет насыщения.
f - Относительная влажность воздуха - влажноcть воздуха, измеренная на высоте 2 м над землей.
Te - Эффективная температура - температура, которую ощущает одетый по сезону человек в тени. Характеристика душности погоды. При расчете учитывается влияние влажности воздуха и скорости ветра на теплоощущения человека.
Tes - Эффективная температура на солнце - температура, которую ощущает человек, с поправкой на солнечный нагрев. Характеристика знойности погоды. Зависит от высоты солнца над горизонтом, облачности и скорости ветра. Ночью, в пасмурную погоду, а также при ветре 12 м/с и более поправка равна нулю.
P - Атмосферное давление - приведенное к уровню моря атмосферное давление.
Po - Атмосферное давление - измеренное на уровне метеостанции атмосферное давление.
Tmin - Минимальная температура - минимум температуры воздуха на высоте 2 м над землей.
Tmax - Максимальная температура - максимум температуры воздуха на высоте 2 м над землей.
R - Количество осадков - Количество выпавших осадков за период времени, мм. При наведении курсора мыши на число - период времени, за который выпало указанное количество осадков.
R24 - Количество осадков - Количество выпавших осадков за 24 часа, мм.
S - Снежный покров - Высота снежного покрова, см. При наведении курсора мыши на число - состояние снежного покрова и степень покрытия местности в баллах.